国际通讯卫星 504星 (INTELSAT 504)

导读

INTELSAT 504是由国际通信卫星组织(ITSO)运营的第五代国际通信卫星,于1982年3月5日成功发射。作为大容量商用通信卫星,它采用模块化设计,集成多组抛物面天线、大功率放大器等先进设备,可提供覆盖全球的广播电视与通信中继服务。卫星依托展开式太阳能翼供电,适配地球同步轨道部署,是冷战时期全球跨洋互联互通的重要空间基础设施,推动了国际卫星通信网络的普及与发展。

Basic Information
目录编号:
13083
目录名称:
INTELSAT 504
国际标识:
1982-017A
轨道中心:
EARTH
卫星名称:
国际通讯卫星 504星
卫星全名:
国际通讯卫星 504星 (INTELSAT 504)
卫星状态:
在轨 (已飞行16216 天)
发射日期:
1982-03-05 UTC
国别 :
(ITSO)
星等 :
--
Orbit Information
数据来源 国际轨道数据 AOE轨道数据
星历时间 2026-07-28T10:25:10+0800
12小时前
查看轨道信息
2026-07-23T08:00:00+0800
5天前
查看轨道信息
半长轴 42459.763km 42460.162km
偏心率 0.0015202 0.0015078
轨道倾角 11.314° 11.321°
近地点辐角 215.352° 214.138°
升交点赤经 327.319° 327.350°
平近点角 146.792° 125.825°
近地点 36017.078km 36018.003km
远地点 36146.174km 36146.047km
周期 1451.196分钟 1451.216分钟
每日圈数 0.992285 0.992271
Detailed Information
卫星平台:
Intelsat V
平衡模式:
三轴稳定
覆盖范围:
全球
运营商:
国际卫星通信公司
运营商所在国:
美国
制造商(研发单位):
福特工程公司
制造商所在国:
美国
使用方式:
暂无
Satellite Introduction
从1965年4月至1984年3月,国际通信卫星组织发射了5代、6种不同性能的卫星共计35颗,除6颗卫星因运载火箭和远地点发动机故障而发射失败外,其余29颗卫星均被送到了预定的静止轨道位置。1984年8月前后,国际通信卫星组织利用部署在大西洋、太平洋、印度洋上空的15颗国际通信卫星,为遍布世界各地170多个国家或地区提供电话、电传、电报、电视和数据传输等电信业务;该卫星已退役。
2D Orbit Map
3D Orbit Map
Orbit Altitude Analysis Chart
Orbit Inclination Analysis Chart
Orbit Comprehensive Analysis Chart
View Comprehensive Chart